Time,TemperatureF,DewpointF,PressureIn,WindDirection,WindDirectionDegrees,WindSpeedMPH,WindSpeedGustMPH,Humidity,HourlyPrecipIn,Conditions,Clouds,dailyrainin,SoftwareType,DateUTC
2013-10-24 00:10:00,38.3,27.0,30.33,WSW,257,1.0,3.0,63,0.00,,,0.00,weatherlink.com 1.10,2013-10-24 06:10:00,
2013-10-24 00:25:00,38.9,28.0,30.33,WSW,257,4.0,4.0,64,0.00,,,0.00,weatherlink.com 1.10,2013-10-24 06:25:00,
2013-10-24 00:40:00,37.8,28.0,30.33,WSW,257,1.0,4.0,67,0.00,,,0.00,weatherlink.com 1.10,2013-10-24 06:40:00,
2013-10-24 00:55:00,37.9,28.0,30.33,WSW,257,2.0,3.0,67,0.00,,,0.00,weatherlink.com 1.10,2013-10-24 06:55:00,
2013-10-24 01:10:00,36.3,28.0,30.33,WSW,257,1.0,4.0,71,0.00,,,0.00,weatherlink.com 1.10,2013-10-24 07:10:00,
2013-10-24 01:25:00,36.0,28.0,30.34,WSW,257,0.0,2.0,72,0.00,,,0.00,weatherlink.com 1.10,2013-10-24 07:25:00,
2013-10-24 01:40:00,35.5,28.0,30.34,WSW,257,1.0,3.0,73,0.00,,,0.00,weatherlink.com 1.10,2013-10-24 07:40:00,
2013-10-24 01:56:00,36.8,27.0,30.34,WSW,257,3.0,4.0,69,0.00,,,0.00,weatherlink.com 1.10,2013-10-24 07:56:00,
2013-10-24 02:11:00,36.9,27.0,30.34,WSW,257,2.0,4.0,67,0.00,,,0.00,weatherlink.com 1.10,2013-10-24 08:11:00,
2013-10-24 02:26:00,35.8,28.0,30.35,ENE,73,2.0,5.0,72,0.00,,,0.00,weatherlink.com 1.10,2013-10-24 08:26:00,
2013-10-24 02:41:00,34.6,27.0,30.36,SW,224,0.0,4.0,74,0.00,,,0.00,weatherlink.com 1.10,2013-10-24 08:41:00,
2013-10-24 02:56:00,32.7,26.0,30.36,SW,224,3.0,4.0,77,0.00,,,0.00,weatherlink.com 1.10,2013-10-24 08:56:00,
2013-10-24 03:11:00,33.1,27.0,30.36,West,274,1.0,4.0,77,0.00,,,0.00,weatherlink.com 1.10,2013-10-24 09:11:00,
2013-10-24 03:26:00,32.1,26.0,30.37,West,268,0.0,4.0,77,0.00,,,0.00,weatherlink.com 1.10,2013-10-24 09:26:00,
2013-10-24 03:41:00,32.5,27.0,30.37,West,267,0.0,2.0,80,0.00,,,0.00,weatherlink.com 1.10,2013-10-24 09:41:00,
2013-10-24 03:56:00,32.8,27.0,30.37,West,268,2.0,2.0,79,0.00,,,0.00,weatherlink.com 1.10,2013-10-24 09:56:00,
2013-10-24 04:11:00,34.0,29.0,30.37,West,267,1.0,3.0,81,0.00,,,0.00,weatherlink.com 1.10,2013-10-24 10:11:00,
2013-10-24 04:26:00,34.1,29.0,30.37,SW,231,4.0,7.0,80,0.00,,,0.00,weatherlink.com 1.10,2013-10-24 10:26:00,
2013-10-24 04:41:00,34.7,29.0,30.37,WSW,251,2.0,6.0,79,0.00,,,0.00,weatherlink.com 1.10,2013-10-24 10:41:00,
2013-10-24 04:56:00,34.6,29.0,30.37,WSW,251,3.0,4.0,79,0.00,,,0.00,weatherlink.com 1.10,2013-10-24 10:56:00,
2013-10-24 05:11:00,34.4,30.0,30.37,WNW,294,3.0,6.0,83,0.00,,,0.00,weatherlink.com 1.10,2013-10-24 11:11:00,
2013-10-24 05:26:00,38.3,32.0,30.37,WSW,253,5.0,8.0,79,0.00,,,0.00,weatherlink.com 1.10,2013-10-24 11:26:00,
2013-10-24 05:41:00,38.2,32.0,30.37,WSW,245,4.0,8.0,78,0.00,,,0.00,weatherlink.com 1.10,2013-10-24 11:41:00,
2013-10-24 05:56:00,33.4,27.0,30.37,WSW,245,4.0,4.0,76,0.00,,,0.00,weatherlink.com 1.10,2013-10-24 11:56:00,
2013-10-24 06:11:00,31.0,25.0,30.38,SW,230,4.0,8.0,78,0.00,,,0.00,weatherlink.com 1.10,2013-10-24 12:11:00,
2013-10-24 06:26:00,31.0,25.0,30.38,SW,229,3.0,5.0,77,0.00,,,0.00,weatherlink.com 1.10,2013-10-24 12:26:00,
2013-10-24 06:41:00,31.8,24.0,30.38,SW,224,5.0,8.0,74,0.00,,,0.00,weatherlink.com 1.10,2013-10-24 12:41:00,
2013-10-24 06:56:00,31.2,24.0,30.39,WSW,249,4.0,6.0,76,0.00,,,0.00,weatherlink.com 1.10,2013-10-24 12:56:00,
2013-10-24 09:57:00,44.8,31.0,30.42,SE,135,2.0,3.0,60,0.00,,,0.00,weatherlink.com 1.10,2013-10-24 15:57:00,
2013-10-24 10:12:00,45.5,32.0,30.43,SE,135,1.0,3.0,60,0.00,,,0.00,weatherlink.com 1.10,2013-10-24 16:12:00,
2013-10-24 10:27:00,46.2,33.0,30.42,ESE,112,3.0,4.0,61,0.00,,,0.00,weatherlink.com 1.10,2013-10-24 16:27:00,
2013-10-24 10:42:00,46.4,34.0,30.42,ESE,103,4.0,7.0,63,0.00,,,0.00,weatherlink.com 1.10,2013-10-24 16:42:00,
2013-10-24 10:57:00,46.1,34.0,30.42,East,99,1.0,6.0,63,0.00,,,0.00,weatherlink.com 1.10,2013-10-24 16:57:00,
2013-10-24 11:12:00,47.1,35.0,30.42,ESE,102,3.0,7.0,62,0.00,,,0.00,weatherlink.com 1.10,2013-10-24 17:12:00,
2013-10-24 11:27:00,47.0,35.0,30.41,East,100,6.0,8.0,63,0.00,,,0.00,weatherlink.com 1.10,2013-10-24 17:27:00,
2013-10-24 11:42:00,47.6,35.0,30.41,ESE,102,3.0,10.0,62,0.00,,,0.00,weatherlink.com 1.10,2013-10-24 17:42:00,
2013-10-24 11:57:00,48.3,35.0,30.41,East,85,7.0,7.0,60,0.00,,,0.00,weatherlink.com 1.10,2013-10-24 17:57:00,
2013-10-24 12:12:00,48.8,35.0,30.41,East,79,1.0,9.0,59,0.00,,,0.00,weatherlink.com 1.10,2013-10-24 18:12:00,
2013-10-24 12:27:00,49.2,35.0,30.40,ENE,61,1.0,8.0,59,0.00,,,0.00,weatherlink.com 1.10,2013-10-24 18:27:00,
2013-10-24 12:43:00,48.9,35.0,30.39,East,96,5.0,8.0,60,0.00,,,0.00,weatherlink.com 1.10,2013-10-24 18:43:00,
2013-10-24 12:57:00,49.9,35.0,30.39,East,100,3.0,8.0,57,0.00,,,0.00,weatherlink.com 1.10,2013-10-24 18:57:00,
2013-10-24 13:12:00,50.8,35.0,30.39,SSW,196,2.0,7.0,56,0.00,,,0.00,weatherlink.com 1.10,2013-10-24 19:12:00,
2013-10-24 13:27:00,50.4,35.0,30.38,ENE,71,1.0,9.0,56,0.00,,,0.00,weatherlink.com 1.10,2013-10-24 19:27:00,
2013-10-24 13:42:00,51.4,36.0,30.37,NE,47,3.0,8.0,55,0.00,,,0.00,weatherlink.com 1.10,2013-10-24 19:42:00,
2013-10-24 13:57:00,51.9,36.0,30.36,NE,54,2.0,8.0,55,0.00,,,0.00,weatherlink.com 1.10,2013-10-24 19:57:00,
2013-10-24 14:11:00,52.8,36.0,30.36,ESE,117,2.0,5.0,54,0.00,,,0.00,weatherlink.com 1.10,2013-10-24 20:11:00,
2013-10-24 14:42:00,52.9,36.0,30.36,NE,54,2.0,5.0,54,0.00,,,0.00,weatherlink.com 1.10,2013-10-24 20:42:00,
2013-10-24 14:58:00,53.2,36.0,30.35,ENE,71,4.0,9.0,53,0.00,,,0.00,weatherlink.com 1.10,2013-10-24 20:58:00,
2013-10-24 15:13:00,53.9,37.0,30.35,East,92,5.0,6.0,53,0.00,,,0.00,weatherlink.com 1.10,2013-10-24 21:13:00,
2013-10-24 15:27:00,53.6,36.0,30.35,East,101,5.0,9.0,51,0.00,,,0.00,weatherlink.com 1.10,2013-10-24 21:27:00,
2013-10-24 15:43:00,54.7,36.0,30.35,ESE,108,3.0,7.0,50,0.00,,,0.00,weatherlink.com 1.10,2013-10-24 21:43:00,
2013-10-24 15:57:00,54.4,35.0,30.35,ESE,102,3.0,9.0,49,0.00,,,0.00,weatherlink.com 1.10,2013-10-24 21:57:00,
2013-10-24 16:13:00,54.5,35.0,30.35,East,85,0.0,6.0,49,0.00,,,0.00,weatherlink.com 1.10,2013-10-24 22:13:00,
2013-10-24 16:28:00,54.8,35.0,30.34,East,101,3.0,7.0,47,0.00,,,0.00,weatherlink.com 1.10,2013-10-24 22:28:00,
2013-10-24 16:43:00,54.4,35.0,30.34,East,101,3.0,5.0,48,0.00,,,0.00,weatherlink.com 1.10,2013-10-24 22:43:00,
2013-10-24 16:58:00,54.1,35.0,30.34,East,101,3.0,5.0,49,0.00,,,0.00,weatherlink.com 1.10,2013-10-24 22:58:00,
2013-10-24 17:13:00,53.8,35.0,30.34,East,100,3.0,5.0,50,0.00,,,0.00,weatherlink.com 1.10,2013-10-24 23:13:00,
2013-10-24 17:28:00,53.3,35.0,30.34,East,100,2.0,5.0,50,0.00,,,0.00,weatherlink.com 1.10,2013-10-24 23:28:00,
2013-10-24 17:43:00,53.3,35.0,30.34,East,100,1.0,5.0,51,0.00,,,0.00,weatherlink.com 1.10,2013-10-24 23:43:00,
2013-10-24 17:58:00,51.3,36.0,30.34,ESE,122,3.0,4.0,56,0.00,,,0.00,weatherlink.com 1.10,2013-10-24 23:58:00,
2013-10-24 18:13:00,47.4,36.0,30.35,SE,132,3.0,4.0,65,0.00,,,0.00,weatherlink.com 1.10,2013-10-25 00:13:00,
2013-10-24 18:28:00,44.5,35.0,30.35,SW,229,1.0,5.0,70,0.00,,,0.00,weatherlink.com 1.10,2013-10-25 00:28:00,
2013-10-24 18:43:00,43.6,35.0,30.36,WSW,240,4.0,4.0,72,0.00,,,0.00,weatherlink.com 1.10,2013-10-25 00:43:00,
2013-10-24 18:58:00,42.5,34.0,30.36,WSW,240,3.0,4.0,73,0.00,,,0.00,weatherlink.com 1.10,2013-10-25 00:58:00,
2013-10-24 19:13:00,41.2,34.0,30.37,West,280,3.0,5.0,75,0.00,,,0.00,weatherlink.com 1.10,2013-10-25 01:13:00,
2013-10-24 19:28:00,40.3,33.0,30.37,West,280,1.0,3.0,76,0.00,,,0.00,weatherlink.com 1.10,2013-10-25 01:28:00,
2013-10-24 19:43:00,39.2,33.0,30.37,WSW,258,3.0,4.0,78,0.00,,,0.00,weatherlink.com 1.10,2013-10-25 01:43:00,
2013-10-24 19:58:00,39.3,33.0,30.37,WSW,247,4.0,5.0,77,0.00,,,0.00,weatherlink.com 1.10,2013-10-25 01:58:00,
2013-10-24 20:13:00,38.5,33.0,30.38,WSW,249,2.0,5.0,79,0.00,,,0.00,weatherlink.com 1.10,2013-10-25 02:13:00,
2013-10-24 20:28:00,38.2,32.0,30.38,WSW,249,3.0,4.0,79,0.00,,,0.00,weatherlink.com 1.10,2013-10-25 02:28:00,
2013-10-24 20:43:00,38.0,32.0,30.39,WSW,249,3.0,5.0,79,0.00,,,0.00,weatherlink.com 1.10,2013-10-25 02:43:00,
2013-10-24 20:58:00,38.0,32.0,30.39,WSW,249,3.0,5.0,78,0.00,,,0.00,weatherlink.com 1.10,2013-10-25 02:58:00,
2013-10-24 21:13:00,37.6,31.0,30.39,SW,226,2.0,5.0,78,0.00,,,0.00,weatherlink.com 1.10,2013-10-25 03:13:00,
2013-10-24 21:28:00,36.9,31.0,30.40,SW,226,2.0,4.0,80,0.00,,,0.00,weatherlink.com 1.10,2013-10-25 03:28:00,
2013-10-24 21:43:00,37.0,31.0,30.40,SW,232,3.0,5.0,78,0.00,,,0.00,weatherlink.com 1.10,2013-10-25 03:43:00,
2013-10-24 21:58:00,36.8,31.0,30.40,West,259,4.0,4.0,78,0.00,,,0.00,weatherlink.com 1.10,2013-10-25 03:58:00,
2013-10-24 22:13:00,36.5,30.0,30.40,WSW,252,3.0,4.0,78,0.00,,,0.00,weatherlink.com 1.10,2013-10-25 04:13:00,
2013-10-24 22:28:00,37.0,30.0,30.40,SW,229,3.0,6.0,77,0.00,,,0.00,weatherlink.com 1.10,2013-10-25 04:28:00,
2013-10-24 22:43:00,36.3,30.0,30.40,West,267,2.0,5.0,78,0.00,,,0.00,weatherlink.com 1.10,2013-10-25 04:43:00,
2013-10-24 22:58:00,36.8,30.0,30.40,West,266,4.0,6.0,75,0.00,,,0.00,weatherlink.com 1.10,2013-10-25 04:58:00,
2013-10-24 23:13:00,36.9,29.0,30.40,West,275,4.0,4.0,74,0.00,,,0.00,weatherlink.com 1.10,2013-10-25 05:13:00,
2013-10-24 23:28:00,35.5,29.0,30.40,WSW,254,4.0,4.0,77,0.00,,,0.00,weatherlink.com 1.10,2013-10-25 05:28:00,
2013-10-24 23:43:00,36.2,29.0,30.39,WSW,249,3.0,5.0,74,0.00,,,0.00,weatherlink.com 1.10,2013-10-25 05:43:00,
2013-10-24 23:58:00,35.5,28.0,30.40,West,259,4.0,6.0,74,0.00,,,0.00,weatherlink.com 1.10,2013-10-25 05:58:00,